Location: Unspecified
(52.1971°N, 0.0000°E)
Time: 12:18:08
(UTC+00:00)

YUBILEINY - Pass Details

Date: 15 December 2019
Orbit: 1478 x 1509 km, 82.5° (Epoch: 25 January)

Event Time Altitude Azimuth Distance (km) Brightness Sun altitude
Rises 07:18:38 0° 348° (NNW) 4,613 ? -6.4°
Reaches altitude 10° 07:21:34 10° 351° (N) 3,630 ? -6.0°
Maximum altitude 07:30:16 69° 75° (ENE) 1,576 ? -4.8°
Drops below altitude 10° 07:38:56 10° 158° (SSE) 3,620 ? -3.7°
Sets 07:41:50 0° 161° (SSE) 4,600 ? -3.4°
